Theta_e
322 322 323 323 323 322 322 322 322 322 322 322 321 319 319 320 321 320 317 317 320 320 320 321 321 322 322 323 321 320 321 320 322 322 323 319 322 320 321 321 321 321 323 325 330
322 322 322 323 322 322 322 322 321 322 322 321 320 318 320 321 318 316 316 319 320 319 320 321 321 321 321 322 322 319 319 318 319 319 320 321 320 321 322 321 321 320 321 321 321
322 322 322 322 322 322 322 322 320 320 320 321 320 319 321 318 318 317 316 316 317 318 320 321 321 321 321 320 320 318 322 319 321 322 321 321 321 321 321 322 320 320 320 320 320
322 322 322 322 322 322 322 322 319 319 319 320 319 319 321 324 322 318 317 317 317 318 320 320 320 320 319 320 319 321 319 320 321 320 320 320 321 321 320 320 318 318 318 319 319
322 323 322 322 322 319 319 319 318 319 319 319 317 321 323 321 320 318 319 319 319 319 319 319 319 319 319 318 318 319 318 319 320 319 319 318 319 320 319 317 316 316 317 318 317
321 320 319 321 317 315 315 316 317 319 318 317 318 322 321 319 318 319 318 318 318 319 319 319 319 319 318 317 318 318 318 318 318 318 318 318 318 318 317 317 316 316 316 318 318
316 316 316 321 314 314 316 317 318 318 318 319 320 319 318 315 316 317 318 319 319 320 319 319 320 318 318 316 318 318 320 317 317 317 318 317 318 319 316 316 315 314 317 319 320
313 315 315 315 314 315 317 318 318 319 320 319 319 318 316 316 315 317 318 318 320 320 321 322 321 319 319 319 317 318 316 321 318 317 316 318 320 318 316 315 312 314 318 318 317
314 313 315 314 315 315 316 318 317 318 320 321 319 318 316 315 316 315 315 317 318 318 320 321 321 319 317 317 316 317 321 320 321 316 316 315 317 316 315 312 313 315 313 309 308
311 313 313 314 315 316 316 317 316 317 317 317 316 316 315 314 315 315 316 316 316 318 318 316 316 313 313 316 317 319 321 320 320 318 312 312 314 313 310 313 311 305 304 305 304
311 311 311 313 315 316 315 316 317 316 316 314 314 315 315 315 314 314 314 315 315 314 313 313 312 313 312 314 317 318 318 317 314 313 309 312 311 310 307 309 303 301 303 304 304
311 311 312 313 314 314 315 316 314 312 314 315 315 316 315 314 314 314 313 314 314 313 310 310 312 310 310 309 310 310 312 310 309 309 308 309 309 306 302 301 301 303 303 304 305
311 312 313 314 314 314 312 313 316 313 313 315 314 313 313 314 312 312 312 312 311 310 310 311 311 310 309 308 308 309 307 307 308 307 307 308 308 308 302 301 303 303 304 304 304
311 313 313 314 314 312 312 313 316 315 312 313 313 313 312 312 311 311 311 311 310 310 309 309 308 308 308 308 307 309 306 307 307 307 307 307 307 308 304 303 303 303 303 304 304
312 312 312 313 311 311 310 313 316 314 316 311 312 312 311 311 309 311 310 311 309 309 309 308 307 307 307 307 306 308 306 306 307 306 306 306 308 308 305 307 304 303 303 304 304
312 312 312 313 312 309 309 314 314 312 318 313 311 309 310 309 308 309 309 309 307 307 306 306 307 307 306 306 305 305 304 304 303 305 306 304 305 306 306 306 304 303 303 303 303
312 312 313 313 312 310 310 314 313 316 311 312 311 308 307 307 307 305 305 305 306 305 306 305 306 306 306 307 305 305 303 304 302 304 304 304 303 305 303 303 303 303 303 303 303
311 311 310 312 312 311 310 309 316 313 311 310 309 307 308 306 305 305 305 306 304 304 305 306 306 306 305 306 305 304 303 303 305 303 302 302 301 303 303 302 303 304 304 303 303
311 309 310 312 312 311 311 310 311 311 309 309 308 307 307 306 305 303 304 305 304 303 306 306 306 304 305 304 304 303 304 302 303 302 303 303 303 301 302 303 302 300 301 301 300
309 308 310 310 309 311 309 309 308 307 307 307 309 307 307 306 306 304 304 304 305 304 302 303 305 303 305 303 302 303 302 302 302 302 304 302 300 300 303 301 300 300 300 300 299
308 309 309 308 309 311 307 307 307 307 307 307 308 307 306 306 305 305 305 303 303 304 303 302 302 303 302 302 302 303 302 301 300 301 303 300 300 298 300 299 299 300 299 299 299
307 305 307 306 309 304 305 306 308 307 307 306 306 306 306 304 304 305 306 302 302 301 301 301 301 303 303 301 298 301 301 299 302 301 300 300 300 300 298 298 298 299 299 297 299
305 306 305 307 304 302 305 304 303 305 304 305 305 303 303 304 301 304 303 302 300 300 299 301 300 301 298 297 298 300 301 301 300 298 301 300 299 298 299 299 299 299 298 298 299
304 300 303 305 303 302 303 303 303 303 303 302 301 301 300 300 300 301 302 302 300 299 300 301 300 300 299 299 299 302 302 301 300 300 299 299 299 299 299 299 299 298 297 299 300
303 301 299 295 298 298 299 299 301 300 301 301 300 299 300 295 299 299 299 297 298 299 300 298 298 298 298 298 299 300 299 298 297 298 299 299 300 299 299 299 298 296 298 299 299
302 302 299 299 300 295 294 297 300 301 300 300 301 299 298 298 299 299 298 298 298 297 297 297 298 297 297 297 296 297 297 297 297 298 298 299 299 299 298 296 297 298 299 298 298
301 301 299 297 296 293 294 298 300 299 299 299 299 298 298 297 298 297 297 298 297 296 296 295 296 295 296 295 297 298 297 298 298 298 299 299 298 295 297 297 297 297 299 299 297
Wind_Speed
12 13 14 15 15 15 16 17 18 16 13 11 9 7 5 6 7 6 10 8 7 7 6 4 5 4 4 5 5 3 3 0 1 2 2 6 5 4 5 4 8 6 6 7 9
13 14 15 16 16 15 16 18 19 15 11 8 6 5 5 10 11 15 11 8 6 6 4 3 6 5 3 3 3 4 2 2 2 1 2 6 4 7 4 9 6 12 10 5 8
14 15 15 16 17 16 17 19 19 15 9 5 4 3 7 11 6 10 9 7 6 6 6 6 6 6 4 3 4 1 2 2 1 3 6 4 6 2 1 2 5 11 17 13 14
15 15 16 16 17 17 17 18 16 12 9 4 3 4 9 4 3 7 7 6 6 6 6 5 5 4 3 2 4 2 2 1 2 4 7 4 5 3 2 5 12 10 10 12 12
15 17 17 17 18 17 18 16 11 11 11 6 5 10 11 10 8 6 7 6 5 5 8 7 11 4 3 3 5 3 4 7 9 12 8 6 5 2 4 15 13 13 13 13 9
18 19 18 17 18 18 18 13 8 7 11 8 10 10 7 9 9 7 7 8 7 7 9 9 6 5 4 2 2 4 7 10 6 8 5 2 2 3 2 18 17 20 18 15 11
20 20 20 18 18 20 18 12 10 8 11 12 15 17 19 10 9 8 6 8 9 8 8 8 7 4 3 2 6 3 4 5 6 9 4 3 1 2 7 18 21 18 13 12 12
19 19 19 18 17 20 14 13 12 10 10 10 9 8 9 9 9 5 7 6 6 7 6 7 6 5 4 5 4 3 3 4 3 10 8 6 4 5 22 19 20 14 9 9 10
18 18 18 20 17 20 10 11 14 10 10 9 7 7 6 5 8 10 9 8 5 5 8 7 4 6 7 3 3 8 4 4 9 6 8 10 9 11 20 19 7 8 10 11 11
17 19 19 19 18 19 12 5 18 8 8 10 8 7 9 8 12 13 9 9 7 3 2 9 6 4 4 8 4 6 4 3 6 5 10 10 10 8 14 6 11 13 12 12 12
18 19 20 18 17 20 15 3 3 6 27 14 10 9 9 10 16 16 15 6 8 10 5 7 8 5 3 1 2 3 3 6 4 4 12 5 15 9 7 12 11 10 11 12 12
18 18 18 16 15 18 15 12 11 9 12 15 14 11 15 9 4 19 15 6 9 4 7 6 4 4 2 4 3 3 4 5 10 6 10 12 17 4 9 5 7 8 9 10 10
17 16 16 13 9 16 23 17 8 9 6 8 12 11 9 10 10 16 18 6 7 5 5 3 1 4 2 2 4 2 2 4 7 6 7 8 5 3 4 4 5 9 7 9 12
17 16 16 14 8 17 21 15 6 6 4 9 8 9 13 2 6 15 15 7 6 3 3 4 5 3 4 3 1 2 2 5 9 12 8 7 7 4 1 2 3 6 7 8 9
15 16 16 14 11 18 16 10 4 3 4 7 5 7 10 9 6 13 17 8 3 4 3 2 5 5 5 0 3 4 7 6 15 13 4 5 3 2 2 2 3 4 6 6 9
16 15 14 13 12 15 16 7 2 4 2 3 6 8 6 12 7 13 11 13 6 3 4 2 3 4 3 3 3 7 6 8 3 1 2 6 3 4 2 2 6 4 7 11 14
14 15 15 13 13 14 14 3 4 5 3 5 3 5 4 6 6 9 4 9 5 6 6 7 2 3 6 5 4 9 7 5 4 2 3 4 6 8 3 3 4 8 13 17 16
12 12 11 11 11 12 12 4 6 1 2 2 4 2 5 7 3 7 3 5 7 6 3 5 4 5 8 3 3 3 1 1 6 6 11 12 8 1 2 5 8 13 18 22 28
13 10 9 10 9 11 3 5 2 2 1 4 1 5 4 4 5 4 5 2 4 6 4 6 4 4 4 3 1 2 1 1 5 6 4 4 6 4 1 5 13 21 20 29 33
13 10 7 12 10 6 6 4 2 3 4 1 3 3 5 7 5 5 3 4 5 8 2 3 7 3 5 2 2 3 1 3 0 4 5 3 10 10 10 13 19 20 26 32 34
13 4 10 10 6 8 4 3 3 7 3 4 1 3 3 3 2 4 4 3 5 4 6 1 3 4 3 2 8 5 2 2 1 2 3 6 9 3 16 17 13 26 31 30 32
7 3 14 7 7 6 3 3 3 6 9 6 5 3 2 2 2 2 2 3 3 5 2 3 1 4 7 6 3 1 1 4 2 5 4 5 16 12 10 14 25 31 28 30 24
5 5 12 4 4 3 3 4 7 6 6 5 4 5 4 2 2 1 1 7 4 6 3 3 1 6 6 2 2 4 0 1 2 2 16 11 12 9 28 32 30 24 27 25 21
4 3 9 13 10 6 4 2 3 6 4 6 3 4 4 3 4 1 2 1 8 11 10 7 2 6 7 10 5 13 11 8 7 7 14 16 24 25 19 19 26 27 27 20 16
4 3 3 3 8 8 4 2 3 3 3 4 4 5 3 3 4 3 1 4 7 8 2 3 4 4 6 13 12 17 21 21 11 18 9 20 19 21 19 18 26 23 20 17 18
2 5 8 5 2 4 4 0 3 2 2 2 5 3 2 3 2 4 2 1 5 4 3 3 4 9 15 11 14 17 20 17 17 17 15 20 21 18 21 18 18 21 17 18 21
5 8 4 2 2 3 2 4 3 4 5 5 4 2 1 1 4 12 16 14 10 2 0 2 2 1 5 5 11 7 6 6 5 6 8 7 11 14 13 20 21 22 22 23 23
Wind_Direction
9 5 3 0 356 354 352 350 348 346 343 345 354 9 36 83 94 77 58 55 60 43 40 44 36 34 46 53 43 44 60 75 249 159 325 3 16 44 1 358 345 350 340 335 339
8 6 4 1 356 352 350 350 347 346 347 345 0 23 87 110 100 78 56 49 38 21 17 32 26 33 69 52 39 68 92 219 217 253 324 337 1 350 6 341 350 355 354 336 351
10 6 4 1 357 351 349 351 350 344 335 341 1 41 129 128 96 37 39 32 17 16 22 23 21 36 73 49 20 85 121 194 19 352 357 331 317 356 322 6 351 323 322 317 318
10 5 4 2 357 352 348 350 357 9 18 13 1 113 143 107 88 30 31 23 18 19 15 26 18 44 64 44 7 23 39 313 300 331 323 291 287 297 26 354 347 358 337 323 323
5 2 2 1 356 352 349 349 358 19 20 21 98 115 123 80 57 46 28 19 27 35 43 46 48 46 53 349 358 47 338 320 309 312 317 297 261 246 42 2 27 20 20 17 0
1 358 1 3 0 357 354 1 9 24 34 64 100 114 105 77 53 37 36 28 41 41 44 46 43 31 85 30 54 311 298 305 316 330 5 6 355 152 39 3 16 10 20 22 32
358 358 2 8 7 4 3 22 52 54 68 87 98 100 86 75 44 36 35 46 48 47 47 43 32 34 9 33 334 312 337 3 19 355 30 328 160 147 10 355 7 22 38 37 49
358 358 5 13 13 11 19 46 60 72 81 103 102 92 82 63 54 66 53 47 43 36 39 27 20 72 33 328 14 42 54 17 357 1 24 25 295 294 340 353 8 17 48 60 59
0 360 8 10 16 17 35 67 51 74 81 100 92 103 80 49 52 37 35 38 48 41 48 36 59 57 26 22 21 20 358 350 325 36 5 36 281 295 326 339 30 88 82 77 73
5 5 7 9 13 19 22 76 69 71 99 87 74 79 49 38 47 42 51 43 41 61 26 29 48 60 28 27 6 326 335 309 277 319 358 304 284 303 349 28 86 87 80 70 58
9 7 4 7 14 17 18 96 110 77 63 69 61 80 58 73 53 35 32 43 31 51 29 25 59 48 343 3 235 249 253 277 282 319 344 289 295 316 49 71 75 70 66 61 52
10 10 5 5 18 21 32 70 77 119 74 61 65 66 48 47 39 29 30 50 43 44 356 27 86 342 329 35 4 327 323 333 288 302 326 294 299 108 60 72 92 82 52 45 35
10 11 9 6 16 23 35 51 85 124 89 44 45 36 24 41 38 15 21 29 43 32 33 92 64 352 59 68 16 105 92 275 266 308 263 304 273 163 88 99 79 61 60 28 16
10 12 13 14 16 13 26 30 66 128 83 338 2 19 3 83 62 25 22 17 31 31 35 82 358 28 40 84 343 288 346 288 302 330 309 19 292 131 37 16 26 22 15 8 11
8 10 14 20 26 21 4 18 75 136 69 341 3 4 27 74 323 13 23 24 55 339 37 333 12 36 53 209 344 287 335 284 290 280 309 13 252 297 286 227 291 331 348 6 355
5 8 12 15 21 13 0 9 69 46 92 350 6 0 24 22 23 359 21 31 45 65 17 54 1 42 340 328 9 307 329 310 52 94 256 114 1 272 262 314 309 309 313 325 332
3 5 2 8 6 3 351 1 41 87 332 337 336 18 79 353 17 22 55 40 27 4 14 343 11 4 17 358 6 23 10 336 322 338 317 182 330 264 319 323 308 325 316 319 317
358 0 4 11 358 355 347 46 75 144 9 326 7 43 66 10 32 5 56 34 20 22 5 0 347 18 338 34 317 5 60 261 292 308 300 309 251 239 290 312 318 309 306 310 315
347 351 359 1 358 345 1 52 118 179 283 346 69 59 21 14 27 54 58 68 40 18 40 350 260 325 42 330 26 354 55 161 273 273 261 254 304 248 339 338 335 334 331 325 318
345 342 10 357 350 14 71 108 82 36 354 22 75 26 31 359 35 32 37 326 358 29 19 4 293 327 298 344 54 108 261 294 153 289 280 281 295 291 319 320 327 325 323 320 321
347 348 357 0 22 51 91 99 98 40 47 37 101 84 98 55 61 26 20 340 355 331 63 85 172 269 345 292 306 338 319 51 302 231 279 304 277 324 304 305 318 315 317 316 317
351 11 350 2 43 43 59 23 53 13 38 42 78 71 77 76 71 97 132 141 20 0 19 314 300 288 254 295 279 212 136 101 174 271 241 276 282 285 290 311 312 308 314 321 326
17 5 11 46 91 64 73 61 59 32 31 29 57 44 24 48 86 115 160 181 58 20 56 5 298 308 317 13 58 83 334 216 163 196 282 285 280 284 308 307 310 314 319 332 341
15 34 29 57 74 108 124 86 102 41 61 68 108 83 57 26 1 216 340 261 321 317 305 288 216 204 256 286 300 298 284 253 261 274 282 268 278 291 301 302 310 313 320 331 346
55 91 78 1 29 77 75 24 92 44 65 44 50 78 92 49 336 333 265 333 309 305 93 83 255 272 282 284 285 278 279 283 254 255 255 275 289 285 291 301 305 303 312 326 331
76 137 98 89 97 79 12 242 130 128 69 22 98 136 86 139 234 282 306 237 247 348 36 8 284 319 299 271 263 269 275 276 276 270 255 260 275 285 287 299 313 324 316 316 320
131 137 137 74 92 91 200 157 114 114 52 74 117 98 15 304 313 288 277 264 271 340 312 251 279 348 279 288 313 283 316 290 282 269 284 292 321 325 323 327 320 318 311 307 314